Regional Weather Roundup
Issued by NWS Newport/Morehead, NC

Home | Current Version | Previous Version | Text Only | Print | Product List | Glossary On
Versions: 1 2 3 4 5 6 7 8 9 10 11 12 13 14 15 16 17 18 19 20 21 22 23 24 25 26 27 28 29 30 31 32 33 34 35 36 37 38 39 40 41 42 43 44 45 46 47 48 49 50
000
ASUS42 KMHX 051712
RWRMHX
WEATHER ROUNDUP FOR EASTERN NORTH CAROLINA
NATIONAL WEATHER SERVICE NEWPORT/MOREHEAD CITY NC
1200 PM EST THU MAR 05 2015

NOTE: "FAIR" INDICATES FEW OR NO CLOUDS BELOW 12,000 FEET
WITH NO SIGNIFICANT WEATHER AND/OR OBSTRUCTIONS TO VISIBILITY

NCZ015>017-031-032-045>047-102-103-051800-
NORTH COAST

CITY           SKY/WX    TMP DP  RH WIND       PRES   REMARKS
EDENTON        NOT AVBL
ELIZABETH CITY LGT RAIN  40  37  89 NE20      30.03F FOG
KITTY HAWK     NOT AVBL
MANTEO         CLOUDY    39  37  93 N20G30    30.02F FOG

$$

NCZ045>047-081-094-103-104-051800-
CENTRAL COAST

CITY           SKY/WX    TMP DP  RH WIND       PRES   REMARKS
FRISCO         CLOUDY    55  54  96 N8        29.98R FOG
SWANQUARTER      N/A     48 N/A N/A NE9G23    29.94S

$$

NCZ095-097-098-100-101-051800-
SOUTHERN COAST

CITY           SKY/WX    TMP DP  RH WIND       PRES   REMARKS
BEAUFORT       CLOUDY    62  60  93 SW22G29   29.97F
CEDAR ISLAND     N/A     72 N/A N/A SW10G29   29.97F
JACKSONVILLE   PTSUNNY   80  60  50 SW17G33   29.92F
PINEY ISLAND     N/A    N/A N/A N/A MISG      29.94F
WILMINGTON     PTSUNNY   73  63  70 SW16G32   29.97S


$$

NCZ011>013-027>030-043-044-078>080-089-090>093-098-051800-
COASTAL PLAIN

CITY           SKY/WX    TMP DP  RH WIND       PRES   REMARKS
AHOSKIE        NOT AVBL
CLINTON        NOT AVBL
ELIZABETHTOWN  NOT AVBL
GOLDSBORO      CLOUDY    73  72  96 SW18      29.89S
GREENVILLE     NOT AVBL
HAVELOCK       MOSUNNY   77  62  59 SW15G25   29.95F
KENANSVILLE    NOT AVBL
KINSTON        PTSUNNY   75  61  60 SW12      29.92F
NEW BERN       PTSUNNY   81  61  50 W22G35    29.93F
RICHLANDS      PTSUNNY   79  63  57 SW22      29.93F
ROCKY MOUNT    LGT RAIN  44  42  93 NE12G20   29.98F FOG
WASHINGTON     NOT AVBL
WHITEVILLE     NOT AVBL

$$

AMZ130-135-150-152-154-156-158-170-250-252-270-ANZ085-086-088-633-658-670-051800-
MARINE OBSERVATIONS

STATION/POSITION TIME  TEMP    WIND        PRES    WAVE   SWELL
                       AIR SEA DIR/SP/G            HT/PER HT/PER
                 (UTC) (F)     (DEG/KT/KT) (MB)    (FT/S) (FT/S)
CHESAPEAKE LIGHT 1600   36     360/ 20/ 21 1018.2
64 E VA BEACH    1650   44 51  360/ 23/ 29 1015.2    8/ 7   2/10
DUCK             1600   37 36   10/ 18/ 20 1016.0
2 E DUCK         1611      35                N/A     5/ 5
10 NE DUCK       1622      38                N/A     5/ 5   2/11
OREGON INLET     1600   38 50  350/ 14/ 18 1016.1
HATTERAS CG      1600   61 50  230/ 12/ 18 1015.1
CAPE LOOKOUT     1700   61     240/ 11/ 15 1015.2
BEAUFORT LAB     1600   58 47  230/  5/ 11 1014.4
27 SE WRIGHTSVLE NOT AVBL
5 SE WRIGHTSVLE  NOT AVBL
225 S CAPE HAT   1650   74 73  220/ 19/ 23 1020.7    7/ 7   3/10
41 SE CHARLESTON 1650   70 68  210/ 21/ 27 1016.1    6/ 7   3/ 8

$$


USA.gov is the U.S. government's official web portal to all federal, state and local government web resources and services.